Terug naar catalogus

STARLINK-2225

ActiefCommunicatieVLEO
NORAD 48574·PAYLOAD·🇺🇸 United States

Gelanceerd May 15, 2021 vanaf Cape Canaveral Space Force Station

Loading…

Volgende Passages (komende 24 uur)

TLE

VersSource: CelesTrak SupGP

Epoch: Sep 14, 2026, 21:16 UTC

1 48574C 21041X   26257.88659722  .00008509  00000+0  27347-3 0  2579
2 48574  53.1571 300.4985 0001323  84.2107 265.1783 15.31716755    16

Volg STARLINK-2225 in realtime met AllMySat

Download on the App Store